Location: Madrid
(40.4000°N, 3.6830°W)
Time: 15:52:33
(UTC+02:00)

ISS - Pass Details

Date: 28 March 2020
Orbit: 416 x 423 km, 51.6° (Epoch: 02 April)

Event Time Altitude Azimuth Distance (km) Brightness Sun altitude
Rises 21:28:54 0° 311° (NW) 2,361 1.4 -21.6°
Reaches altitude 10° 21:31:42 10° 336° (NNW) 1,497 -0.3 -22.1°
Maximum altitude 21:33:43 15° 13° (NNE) 1,236 -1.3 -22.4°
Enters shadow 21:33:45 15° 14° (NNE) 1,236 -1.3 -22.4°
